TimeMST,TemperatureF,Dew PointF,Humidity,Sea Level PressureIn,VisibilityMPH,Wind Direction,Wind SpeedMPH,Gust SpeedMPH,PrecipitationIn,Events,Conditions,WindDirDegrees,DateUTC
12:53 AM,16.0,5.0,62,30.06,10.0,SW,5.8,-,N/A,,Clear,230,2012-12-19 07:53:00
1:53 AM,16.0,3.9,59,30.06,10.0,Calm,Calm,-,N/A,,Clear,0,2012-12-19 08:53:00
2:53 AM,12.0,1.9,64,30.09,10.0,WNW,5.8,-,N/A,,Partly Cloudy,290,2012-12-19 09:53:00
3:53 AM,10.9,1.9,67,30.10,10.0,Calm,Calm,-,N/A,,Clear,0,2012-12-19 10:53:00
4:53 AM,10.9,1.9,67,30.12,10.0,Calm,Calm,-,N/A,,Clear,0,2012-12-19 11:53:00
5:53 AM,10.0,3.0,73,30.15,10.0,Calm,Calm,-,N/A,,Clear,0,2012-12-19 12:53:00
6:53 AM,9.0,1.9,73,30.17,10.0,WSW,4.6,-,N/A,,Clear,240,2012-12-19 13:53:00
7:53 AM,8.1,1.9,76,30.19,10.0,Calm,Calm,-,N/A,,Clear,0,2012-12-19 14:53:00
8:53 AM,10.9,3.0,70,30.20,10.0,Calm,Calm,-,N/A,,Clear,0,2012-12-19 15:53:00
9:53 AM,10.9,3.0,70,30.23,10.0,Calm,Calm,-,N/A,,Mostly Cloudy,0,2012-12-19 16:53:00
10:53 AM,16.0,3.9,59,30.22,10.0,Calm,Calm,-,N/A,,Scattered Clouds,0,2012-12-19 17:53:00
11:53 AM,17.1,5.0,59,30.22,10.0,Calm,Calm,-,N/A,,Partly Cloudy,0,2012-12-19 18:53:00
12:53 PM,19.9,6.1,55,30.21,10.0,Calm,Calm,-,N/A,,Clear,0,2012-12-19 19:53:00
1:53 PM,21.9,7.0,53,30.19,10.0,ESE,3.5,-,N/A,,Partly Cloudy,110,2012-12-19 20:53:00
2:53 PM,25.0,8.1,49,30.19,10.0,SE,6.9,-,N/A,,Overcast,130,2012-12-19 21:53:00
3:53 PM,25.0,8.1,49,30.20,10.0,ESE,6.9,-,N/A,,Mostly Cloudy,110,2012-12-19 22:53:00
4:53 PM,21.9,8.1,55,30.22,10.0,WSW,3.5,-,N/A,,Clear,240,2012-12-19 23:53:00
5:53 PM,19.0,7.0,59,30.24,10.0,West,5.8,-,N/A,,Clear,270,2012-12-20 00:53:00
6:53 PM,19.9,6.1,55,30.24,10.0,Calm,Calm,-,N/A,,Clear,0,2012-12-20 01:53:00
7:53 PM,18.0,5.0,57,30.27,10.0,WNW,3.5,-,N/A,,Clear,290,2012-12-20 02:53:00
8:53 PM,16.0,3.9,59,30.26,10.0,WNW,4.6,-,N/A,,Clear,300,2012-12-20 03:53:00
9:53 PM,16.0,3.0,57,30.27,10.0,WSW,5.8,-,N/A,,Clear,250,2012-12-20 04:53:00
10:53 PM,14.0,3.0,62,30.26,10.0,WSW,4.6,-,N/A,,Clear,250,2012-12-20 05:53:00
11:53 PM,14.0,3.9,64,30.26,10.0,Calm,Calm,-,N/A,,Clear,0,2012-12-20 06:53:00